Theta_e
330 331 331 331 332 332 329 326 330 329 328 329 327 327 329 332 333 333 333 331 331 330 332 334 334 335 335 334 333 330 331 331 332 333 334 332 332 323 322 325 332 335 335
330 330 331 331 332 333 331 328 325 329 328 330 331 332 332 333 334 335 334 335 334 330 330 331 332 333 335 335 333 333 333 333 333 333 334 334 334 332 330 326 318 317 321
329 329 330 331 330 331 332 332 328 326 330 332 333 331 330 334 335 335 334 334 333 330 324 327 324 332 332 332 332 332 332 331 331 330 333 334 336 336 336 334 333 331 322
328 329 331 331 331 332 332 332 331 329 330 331 331 332 333 333 333 332 332 332 330 329 328 318 324 328 327 326 326 326 326 325 326 331 336 333 333 334 336 336 335 333 335
331 331 331 332 332 332 332 332 331 334 333 330 328 329 331 330 327 325 324 322 324 324 326 325 320 325 326 326 326 324 319 318 321 328 331 331 331 330 332 333 335 335 335
331 331 331 329 328 327 326 327 333 332 331 330 328 326 324 320 316 312 312 314 316 317 320 324 325 321 321 322 321 321 325 327 325 322 327 328 327 325 322 323 328 333 335
326 329 329 329 328 327 327 324 327 328 327 325 324 320 313 310 309 309 309 309 309 310 311 314 318 322 324 324 325 326 327 326 326 327 328 327 328 329 329 328 322 319 320
329 326 329 328 327 328 326 324 326 326 323 323 315 311 310 309 309 309 309 309 309 309 309 309 309 310 314 320 323 324 325 324 323 323 322 321 319 319 322 319 318 323 326
328 327 328 327 326 327 329 329 323 323 319 312 311 310 309 309 309 309 309 309 309 309 309 309 308 308 308 309 311 313 315 316 316 317 318 316 312 311 311 311 309 309 311
325 327 326 327 327 327 326 320 318 315 313 311 310 310 310 310 309 309 309 309 308 308 308 308 308 308 308 308 309 309 309 309 309 309 309 309 309 309 309 309 309 308 308
325 325 326 327 328 327 323 316 313 312 312 311 311 311 310 310 309 309 308 307 306 306 306 306 305 305 305 305 306 306 306 305 305 305 305 305 304 304 303 303 303 304 304
325 324 325 325 327 326 320 315 313 314 313 313 312 312 310 309 308 307 306 305 305 305 305 305 304 304 303 303 303 303 303 303 303 303 303 303 304 305 310 312 312 313 314
324 324 325 325 323 323 322 318 313 313 313 314 314 312 309 307 306 306 305 305 304 304 304 303 303 302 303 304 304 304 303 304 303 301 301 303 311 314 314 311 308 308 309
324 324 324 323 322 320 315 315 314 314 315 315 314 311 308 307 306 305 304 304 304 303 303 303 302 303 303 304 304 303 302 301 300 299 298 302 309 308 307 302 302 302 301
323 324 324 323 320 319 317 315 314 315 315 314 312 310 308 306 305 305 304 303 303 303 302 302 302 302 303 303 302 301 300 299 298 297 298 298 299 299 299 300 300 300 300
323 324 324 324 322 320 316 315 314 314 316 313 310 309 307 305 304 303 303 302 302 301 301 301 301 301 301 301 300 299 298 298 297 297 297 297 296 296 296 296 296 295 295
321 322 323 323 321 319 316 314 314 313 313 311 310 308 304 304 303 303 302 302 301 301 301 300 300 300 299 298 297 297 297 296 296 296 296 295 295 295 294 294 295 295 295
321 320 321 321 320 315 314 314 314 313 311 310 308 306 304 303 302 301 300 300 299 300 299 299 299 298 297 297 296 296 296 296 296 295 294 294 294 294 294 294 294 294 294
320 320 320 320 319 317 313 311 311 311 312 311 309 306 304 302 301 300 300 299 299 298 299 298 298 297 296 295 295 295 295 295 295 294 293 293 293 293 293 292 292 293 293
319 319 319 319 319 315 312 309 308 308 308 307 306 304 302 302 300 300 299 298 297 298 297 297 296 295 295 295 295 294 294 294 294 293 293 292 293 292 292 291 292 292 292
316 316 317 317 317 316 314 311 309 308 306 304 303 302 301 301 300 299 298 298 297 296 296 296 295 295 295 295 294 293 293 293 293 292 292 292 292 291 291 291 291 291 292
311 313 313 314 314 313 312 311 309 306 305 304 303 301 300 300 300 299 298 297 296 296 295 295 294 293 293 293 292 292 293 292 291 292 291 291 291 290 290 290 291 291 291
308 309 309 310 311 311 309 305 305 306 305 301 299 298 298 299 298 297 297 296 295 295 295 294 293 292 291 292 292 292 293 295 291 292 291 291 290 290 290 290 290 290 290
306 306 306 307 306 306 306 306 306 307 308 305 303 299 297 296 295 295 294 294 294 293 293 293 292 291 290 290 291 291 291 291 291 292 290 290 290 290 289 289 290 289 290
305 305 305 305 305 305 305 304 305 303 304 304 302 298 296 295 294 294 294 294 293 292 292 292 291 291 290 289 289 289 289 289 289 289 290 290 288 289 289 289 289 289 289
303 303 303 303 304 304 305 304 303 303 303 302 299 297 295 294 294 293 293 293 292 292 292 292 290 290 289 289 289 289 288 288 287 287 287 288 287 288 289 289 288 288 287
Wind_Speed
13 15 14 16 14 15 16 16 16 18 19 19 19 18 18 17 16 15 16 15 14 14 14 14 15 16 17 17 15 16 16 15 15 16 16 16 15 16 16 16 16 16 15
12 16 14 14 15 14 17 19 20 20 21 22 22 22 20 17 17 17 18 17 14 13 14 13 16 15 16 17 17 17 17 16 16 16 17 15 14 13 14 14 14 14 13
11 12 13 13 13 15 18 21 22 23 24 24 25 23 22 20 21 20 19 16 13 12 13 13 15 16 15 14 14 14 14 13 14 15 17 15 14 14 13 10 11 12 12
8 11 7 6 12 13 16 20 21 20 28 26 27 26 21 18 14 13 12 10 9 10 10 11 14 16 15 13 12 12 11 10 11 15 15 15 14 14 14 14 12 10 10
13 13 7 6 5 10 17 15 21 22 17 22 24 17 17 15 12 11 11 9 8 9 9 10 12 13 12 10 9 9 9 9 9 12 14 13 11 10 11 12 13 13 12
18 15 10 9 10 8 7 4 26 27 25 24 15 11 9 7 7 8 7 8 8 9 10 10 10 10 10 9 9 9 9 10 9 10 10 8 5 7 5 3 4 6 8
18 15 9 8 7 9 6 8 11 25 19 18 10 6 6 4 5 7 8 8 8 9 9 9 10 9 8 8 8 8 8 7 6 6 6 5 5 6 6 5 4 4 3
17 17 13 11 11 13 14 16 14 11 9 12 10 6 7 7 8 8 8 9 9 8 8 8 9 8 8 8 8 7 6 6 4 4 2 1 1 1 1 2 2 1 1
18 18 19 16 14 10 10 14 15 7 7 7 8 8 7 8 8 8 7 7 7 7 6 6 6 7 7 8 8 8 7 6 6 5 4 3 4 5 4 4 4 3 2
20 20 17 19 16 11 10 13 18 17 13 12 11 10 9 8 6 6 6 6 4 5 5 5 6 6 6 7 7 6 6 6 5 5 6 5 5 6 5 5 5 5 5
24 23 21 19 18 16 17 17 17 17 15 10 8 9 8 7 8 7 5 4 5 4 5 5 5 5 5 6 6 6 5 5 4 4 5 4 5 5 5 4 4 5 5
27 27 25 23 19 17 16 17 19 15 13 10 9 8 9 9 8 7 6 5 4 4 4 4 5 5 5 5 5 5 5 4 4 4 5 4 4 4 1 2 3 3 3
29 28 28 26 24 22 22 19 18 16 14 13 12 10 9 9 9 7 6 6 5 4 4 4 5 5 5 5 4 4 4 4 4 4 3 5 7 7 6 2 5 6 5
31 32 30 28 26 24 23 22 20 18 17 16 14 13 11 10 9 7 6 6 6 5 5 5 5 5 4 4 5 5 5 5 4 3 2 7 9 5 1 10 10 9 9
32 33 34 31 30 28 26 25 24 21 19 17 16 14 13 12 10 8 8 7 7 6 6 6 6 6 5 5 5 5 5 5 4 5 5 9 10 11 10 9 9 8 8
32 35 36 35 32 30 29 28 25 22 20 19 17 16 14 13 11 10 8 8 8 8 7 7 6 6 6 5 6 5 5 6 6 6 7 8 9 10 11 10 9 9 9
32 35 38 37 35 33 32 29 26 24 22 20 18 17 15 14 12 11 11 10 10 9 8 7 7 6 6 6 6 5 6 6 7 8 9 9 9 10 11 11 10 10 11
31 35 38 39 36 34 33 31 29 26 25 23 21 18 16 15 13 11 11 11 10 9 9 9 8 7 7 6 7 6 7 8 8 9 9 10 10 9 10 10 11 13 15
31 33 36 39 39 37 35 32 31 29 27 24 22 20 18 16 15 14 13 12 11 10 10 9 8 8 7 7 7 7 8 9 10 10 10 10 9 9 9 12 14 14 16
30 33 36 40 41 39 37 34 32 30 29 26 24 21 19 18 16 15 14 12 12 11 10 9 8 8 7 7 6 7 8 9 10 11 11 11 10 9 10 14 15 16 17
29 32 36 41 43 44 43 40 37 34 31 29 27 24 22 19 17 16 15 14 13 12 11 10 9 8 8 7 7 6 8 9 10 11 11 10 11 11 13 15 18 19 19
25 30 33 38 44 45 45 43 40 37 34 31 28 27 25 22 19 19 17 15 14 12 11 10 9 8 7 6 6 6 3 4 7 10 13 12 12 13 13 18 20 20 19
16 23 28 33 40 44 44 42 41 39 35 34 33 31 27 23 22 20 19 17 16 14 12 11 10 8 8 7 7 7 3 3 2 7 12 12 11 12 15 19 18 18 17
7 14 21 27 33 40 44 46 44 40 39 36 34 31 28 26 23 21 20 18 15 13 12 11 10 9 8 8 7 6 7 7 3 3 8 9 12 14 16 14 15 14 15
2 7 13 21 29 34 42 43 42 40 37 36 36 33 30 28 25 23 20 17 15 13 12 11 11 10 10 8 7 6 6 6 7 7 6 6 13 14 12 14 13 12 14
7 2 8 15 22 29 37 43 43 42 40 39 35 34 32 29 26 23 21 18 16 14 13 13 12 11 11 10 8 7 6 5 5 5 6 8 12 12 13 9 8 12 12
Wind_Direction
202 200 199 195 193 189 189 189 185 177 170 166 160 155 144 139 134 131 121 124 127 129 133 126 125 111 115 116 121 118 117 116 114 112 109 105 100 101 98 97 95 98 100
203 199 200 203 204 201 199 198 197 189 179 170 161 155 146 145 142 134 128 122 128 132 125 125 124 131 124 120 122 119 117 113 111 111 105 100 99 99 98 94 93 92 95
195 190 197 211 216 220 208 209 202 194 179 163 157 154 150 145 138 133 133 137 135 113 121 120 124 116 129 135 133 126 121 120 117 110 91 94 101 104 100 101 104 95 92
186 176 173 236 222 214 218 218 212 203 199 178 168 158 148 152 151 148 159 164 152 137 130 131 135 134 140 143 136 129 124 123 124 105 105 100 93 108 108 101 94 102 96
146 159 173 187 137 219 202 220 202 186 125 126 139 154 154 160 166 174 179 176 164 155 144 140 140 147 149 146 141 138 129 126 131 108 123 117 104 107 122 126 118 113 107
149 143 154 134 141 101 92 37 168 144 133 137 138 145 152 155 180 177 177 166 160 160 157 150 145 148 150 151 148 138 130 126 127 118 95 114 111 93 106 112 109 117 111
168 159 169 186 151 151 122 121 53 105 124 129 134 153 124 133 151 156 150 146 151 149 154 158 161 162 157 157 157 151 144 137 134 131 115 100 90 83 80 76 85 111 135
169 174 166 175 165 135 126 120 134 111 112 134 149 174 172 183 178 164 161 157 154 153 155 157 158 165 170 175 177 176 174 172 174 173 165 274 327 330 291 320 326 339 91
177 180 184 174 168 177 170 153 128 127 126 172 175 183 184 179 172 171 168 170 165 166 171 176 178 178 184 187 189 193 200 202 208 217 211 245 267 273 280 288 289 296 281
187 178 186 182 192 192 169 160 165 168 172 195 188 176 175 174 176 187 182 176 183 176 172 179 185 187 190 196 199 202 209 219 228 226 235 245 252 273 280 274 274 266 259
197 192 190 190 198 193 173 174 176 176 181 187 182 171 174 186 183 189 190 184 179 178 179 175 183 188 191 193 200 203 210 218 228 244 263 272 279 289 299 302 285 276 260
204 200 198 196 198 191 184 195 192 183 181 189 193 199 186 186 191 186 191 190 201 196 190 192 195 195 192 193 198 204 210 218 223 233 246 254 280 296 56 118 132 124 113
209 206 202 201 200 198 187 194 197 192 195 195 206 200 201 196 196 200 196 201 205 211 209 201 208 206 200 199 211 230 238 248 250 241 217 186 135 130 127 190 262 252 231
215 212 209 206 207 203 198 199 201 198 198 203 201 199 201 205 210 209 210 205 209 209 213 211 210 216 219 231 250 260 265 263 253 225 201 158 149 146 243 279 287 290 288
217 217 215 213 209 208 207 205 206 207 206 203 201 202 200 205 210 213 215 215 219 221 217 214 217 224 232 241 247 252 260 256 242 209 219 236 244 254 261 266 267 271 279
220 218 218 218 216 214 212 212 211 211 211 207 204 204 204 206 208 213 217 217 220 218 221 224 228 235 246 248 246 247 242 242 239 230 232 246 253 258 266 278 289 294 295
222 219 219 217 216 213 213 214 214 213 212 211 212 211 205 207 207 210 215 217 220 218 225 225 233 239 246 249 247 244 246 241 237 237 238 246 258 270 279 283 291 295 294
229 221 217 217 219 216 215 215 217 216 213 213 213 212 211 212 215 217 220 221 224 222 224 224 227 231 241 246 249 249 252 254 250 244 242 244 252 263 279 290 293 299 299
230 228 224 221 219 219 218 217 215 215 218 219 218 215 214 216 215 216 221 225 226 227 230 233 231 230 234 241 242 250 252 254 253 251 252 253 256 264 283 299 303 303 302
236 229 225 224 222 219 217 215 213 214 214 214 215 215 215 218 220 220 223 225 228 229 231 234 238 244 248 253 256 252 249 247 249 250 252 252 253 263 285 294 301 304 302
238 229 224 221 221 219 217 216 216 215 212 212 212 215 217 220 223 227 228 226 228 228 232 237 240 243 245 248 249 252 256 253 251 252 250 250 258 275 296 303 311 310 308
237 231 225 222 221 219 218 217 217 213 212 215 215 216 214 217 222 227 229 229 233 234 236 240 242 243 240 229 221 216 219 276 260 258 259 263 270 290 292 306 311 310 308
233 229 226 223 222 221 219 214 213 215 214 210 208 211 212 215 218 224 226 225 227 230 234 242 245 242 241 229 220 200 195 183 206 266 263 268 264 277 296 308 308 306 307
240 235 225 224 223 219 219 220 222 221 215 215 217 215 212 211 213 217 220 220 223 228 231 237 243 243 238 238 234 224 222 225 194 238 275 265 270 281 299 302 307 308 310
314 248 234 226 226 222 222 223 223 221 221 219 216 211 211 212 212 215 219 224 226 230 235 239 244 244 243 241 238 235 236 243 246 233 257 265 291 291 297 309 309 314 317
30 330 242 227 228 226 227 224 224 225 222 221 218 213 212 212 214 214 216 220 224 231 239 244 247 248 250 251 253 251 247 241 252 264 278 286 296 302 305 301 301 323 320